Location: Unspecified
(52.4292°N, 19.3359°E)
Time: 21:42:52
(UTC+02:00)

A-11 Canister half - Pass Details

Date: 25 May 2024
Orbit: 1524 x 1683 km, 47.3° (Epoch: 19 June)

Event Time Altitude Azimuth Distance (km) Brightness Sun altitude
Rises 21:40:52 0° 232° (SW) 4,677 11.6 -6.8°
Reaches altitude 10° 21:43:59 10° 227° (SW) 3,706 11.0 -7.1°
Maximum altitude 21:52:52 50° 156° (SSE) 1,915 9.2 -8.0°
Drops below altitude 10° 22:02:01 10° 85° (E) 3,819 10.8 -8.8°
Sets 22:05:16 0° 80° (E) 4,828 11.3 -9.1°
